Retour au catalogue

STARLINK-11613

ActifCommunicationsVLEO
NORAD 63136·PAYLOAD·🇺🇸 United States

Lancé Mar 3, 2025 depuis Cape Canaveral Space Force Station

Loading…

Prochains Passages (prochaines 24 heures)

TLE

FraisSource: CelesTrak SupGP

Époque: Sep 15, 2026, 02:24 UTC

1 63136C 25043E   26258.10048611 -.00041203  00000+0 -32008-3 0  2582
2 63136  43.0005 189.3414 0001506 273.1606 238.7702 15.70854466    16

Suivez STARLINK-11613 en temps réel avec AllMySat

Download on the App Store